{"data":{"norad_id":53286,"intl_designator":"2022-086AW","name":"STARLINK-4165","alt_names":[],"object_type":"PAYLOAD","status":"ACTIVE","operator":null,"country":"US","launch_date":"2022-07-24","launch_site_code":"AFETR","launch_vehicle":null,"mission":null,"orbit_class":"UNKNOWN","rcs_meters":null,"size_class":null,"mass_kg":null,"dimensions":null,"purposes":["comms"],"wikipedia_slug":null,"has_3d_model":false,"image_url":null,"decayed_at":null,"tle_current":{"epoch":"2026-09-19T23:31:24.309408Z","epoch_age_seconds":120254,"freshness":"FRESH","line1":"1 53286U 22086AW  26262.98014247  .00002566  00000+0  94448-4 0  9996","line2":"2 53286  53.1612  18.2824 0001207  86.3109 273.8030 15.31687601230709","mean_motion":15.31687601,"eccentricity":0.0001207,"inclination_deg":53.1612,"raan_deg":18.2824,"arg_perigee_deg":86.3109,"mean_anomaly_deg":273.803,"bstar":9.4448e-5,"rev_number":23070,"period_min":94.013948997162,"perigee_km":469.95029233427,"apogee_km":471.60362016331,"semimajor_km":6848.9139562488,"source":"CELESTRAK","updated_at":"2026-09-20T09:00:40.220526Z"}}}